Regional Weather Roundup
Issued by NWS

Home | Current Version | Previous Version | Graphics & Text | Print | Product List | Glossary On
Versions: 1 2 3 4 5 6 7 8 9 10 11 12 13 14 15 16 17 18 19 20 21 22 23 24 25 26 27 28 29 30 31 32 33 34 35 36 37 38 39 40 41 42 43 44 45 46 47 48 49 50
000
ASUS43 KFSD 031902
RWRSD

WEATHER ROUNDUP FOR SOUTH DAKOTA
NATIONAL WEATHER SERVICE SIOUX FALLS SD
200 PM CDT THU SEP 03 2015

NOTE: "FAIR" INDICATES FEW OR NO CLOUDS BELOW 12,000 FEET WITH NO
SIGNIFICANT WEATHER AND/OR OBSTRUCTIONS TO VISIBILITY.


SDZ001>005-009-010-012>017-032000-
NORTHWEST AND NORTH CENTRAL SOUTH DAKOTA

CITY           SKY/WX    TMP DP  RH WIND       PRES   REMARKS
BUFFALO          N/A     86  46  24 NW13      29.71F
MOBRIDGE       SUNNY     96  66  37 S16G25    29.68F HX  99
$$

SDZ012>016-024>037-041>051-057-063-072>074-032000-
SOUTHWEST AND SOUTH CENTRAL SOUTH DAKOTA

CITY           SKY/WX    TMP DP  RH WIND       PRES   REMARKS
RAPID CTY ARPT SUNNY     95  52  23 S8        29.77F
PIERRE         MOSUNNY   99  60  27 SE17      29.71F HX  99
CUSTER         PTSUNNY   86  37  17 VRB7      29.98S
ELLSWORTH AFB  SUNNY     97  46  17 VRB3      29.76F
PHILIP         SUNNY     99  58  25 S16       29.71F HX  98
PINE RIDGE     PTSUNNY   92  47  21 CALM      29.82F
WINNER         FAIR      98  53  22 SE13      29.76F HX  96
$$

SDZ004>011-016>023-039-040-032000-
NORTHEAST SOUTH DAKOTA

CITY           SKY/WX    TMP DP  RH WIND       PRES   REMARKS
ABERDEEN       SUNNY     91  69  48 S20       29.76S HX  96
WATERTOWN      SUNNY     90  71  53 SE10G20   29.82F HX  96
BROOKINGS      SUNNY     88  70  55 SE14      29.84F
$$

SDZ017-020-022-023-036>040-048>070-032000-
SOUTHEAST SOUTH DAKOTA

CITY           SKY/WX    TMP DP  RH WIND       PRES   REMARKS
SIOUX FALLS    SUNNY     85  72  65 SE12G21   29.82F
HURON          SUNNY     89  70  53 SE17      29.77F
CHAMBERLAIN    SUNNY     90  70  52 SE14      29.76F HX  95
MITCHELL       SUNNY     90  72  55 SE12      29.78F HX  97
YANKTON        SUNNY     86  72  62 SE15      29.78S
$$

ABBREVIATIONS USED IN REMARKS
   TC - TEMPERATURE IN CELSIUS
  WCI - WIND CHILL INDEX
   HX - HEAT INDEX
  VSB - VISIBILITY



USA.gov is the U.S. government's official web portal to all federal, state and local government web resources and services.